Regional Weather Roundup
Issued by NWS

Home | Current Version | Previous Version | Graphics & Text | Print | Product List | Glossary On
Versions: 1 2 3 4 5 6 7 8 9 10 11 12 13 14 15 16 17 18 19 20 21 22 23 24 25 26 27 28 29 30 31 32 33 34 35 36 37 38 39 40 41 42 43 44 45 46 47 48 49 50
678
ASUS43 KMKX 261500
RWRWI

WISCONSIN REGIONAL WEATHER ROUNDUP
NATIONAL WEATHER SERVICE MILWAUKEE/SULLIVAN WI
1000 AM CDT MON SEP 26 2016

NOTE: "FAIR" INDICATES FEW OR NO CLOUDS BELOW 12,000 FEET WITH NO
SIGNIFICANT WEATHER AND/OR OBSTRUCTIONS TO VISIBILITY.

WIZ001-002-006>008-014>016-023>028-261600-
NORTHWEST WISCONSIN

CITY           SKY/WX    TMP DP  RH WIND       PRES   REMARKS
SUPERIOR ARPT  CLOUDY    53  45  75 W15G21    29.74S
ASHLAND        LGT RAIN  50  47  89 W17G26    29.69S
HAYWARD        LGT RAIN  50  43  77 W8G21     29.78R
SIREN          SUNNY     54  40  59 W15G24    29.83F
CUMBERLAND     MOSUNNY   52  39  62 W21G26    29.84F
RICE LAKE      SUNNY     55  40  56 W16G24    29.86S
CHETEK         NOT AVBL
LADYSMITH      MOSUNNY   54  43  66 W14G26    29.82S
EAU CLAIRE     NOT AVBL
MENOMONIE      SUNNY     56  42  59 W14G24    29.89S
NEW RICHMOND   SUNNY     55  40  58 W16G23    29.90S
OSCEOLA        MOSUNNY   54  41  60 W15G25    29.92S
$$

WIZ003>005-009-010-017-018-261600-
NORTH CENTRAL WISCONSIN

CITY           SKY/WX    TMP DP  RH WIND       PRES   REMARKS
MANITOWISH WTR NOT AVBL
ARBOR VITAE    DRIZZLE   52  50  93 W14G23    29.71S
WOODRUFF       DRIZZLE   52  50  93 W14G23    29.71S
RHINELANDER    CLOUDY    49  48  97 W16G25    29.73F
EAGLE RIVER    DRIZZLE   48  47  95 W14G26    29.69S
LAND O LAKES   DRIZZLE   49  47  93 W12G21    29.69S
PHILLIPS       CLOUDY    49  45  86 W10G17    29.75S
TOMAHAWK       CLOUDY    49  44  81 W10G18    29.76F
MEDFORD        CLOUDY    51  45  78 W15G24    29.81R
MERRILL        CLOUDY    52  45  77 W18G24    29.78S
$$

WIZ029-030-035-036-043>047-261600-
CENTRAL WISCONSIN

CITY           SKY/WX    TMP DP  RH WIND       PRES   REMARKS
WAUSAU         CLOUDY    54  43  66 W21G37    29.79S
MOSINEE        PTSUNNY   54  46  76 W18G25    29.82S
MARSHFIELD     MOSUNNY   56  41  57 W16G32    29.84S
STEVENS POINT  MOSUNNY   53  42  67 W18G33    29.83F
WAUPACA        SUNNY     59  44  57 W24G30    29.84S
WAUTOMA        SUNNY     59  44  57 W21G33    29.88R
WISC RAPIDS    SUNNY     57  44  62 W20G29    29.87F
CAMP DOUGLAS   NOT AVBL
$$

WIZ011>013-019>022-031-037>040-048>050-261600-
NORTHEAST WISCONSIN

CITY           SKY/WX    TMP DP  RH WIND       PRES   REMARKS
ANTIGO         CLOUDY    49  45  87 W13G18    29.77R
SHAWANO        CLOUDY    55  46  69 W12G20    29.79S
OCONTO         NOT AVBL
STURGEON BAY   CLOUDY    56  46  69 W25G31    29.76S
GREEN BAY      LGT RAIN  58  46  64 W17G28    29.80F
MANITOWOC      NOT AVBL
APPLETON       MOSUNNY   57  43  58 W21G29    29.82F
CLINTONVILLE   NOT AVBL
OSHKOSH        SUNNY     59  43  55 W17G28    29.84F
$$

WIZ032>034-041-042-053>061-261600-
SOUTHWEST WISCONSIN

CITY           SKY/WX    TMP DP  RH WIND       PRES   REMARKS
LA CROSSE      LGT RAIN  61  43  51 W15       29.94F
SPARTA         MOSUNNY   56  44  64 W12G20    29.93F
VIROQUA        SUNNY     55  41  59 W10G18    29.96S
BOSCOBEL       SUNNY     60  42  51 W15       30.00R
PRAIRIE DU CHI SUNNY     58  39  49 W13G18    30.01S
PLATTEVILLE    SUNNY     58  44  60 W16G22    30.02S
$$

WIZ056-057-062-063-064-067-068-261600-
SOUTH CENTRAL WISCONSIN

CITY           SKY/WX    TMP DP  RH WIND       PRES   REMARKS
REEDSBURG      NOT AVBL
BARABOO/DELLS  SUNNY     56  41  56 W16G23    29.94R
LONE ROCK      NOT AVBL
MINERAL POINT  SUNNY     57  45  62 W15       30.00S
MADISON        SUNNY     58  44  60 VRB7      29.94F
MIDDLETON      NOT AVBL
WATERTOWN      SUNNY     58  44  60 W15G23    29.94S
MONROE         SUNNY     55  43  62 W20G25    30.00S
JANESVILLE     SUNNY     61  45  55 W15G21    29.98S
$$

WIZ051-052-058>065-066-070>072-261600-
SOUTHEAST WISCONSIN

CITY           SKY/WX    TMP DP  RH WIND       PRES   REMARKS
MILWAUKEE      MOSUNNY   62  45  53 W20G28    29.94R
WAUKESHA       SUNNY     57  45  62 W17G23    29.95R
MILWAUKEE/TIMM SUNNY     59  43  55 W20G30    29.93R
RACINE         SUNNY     61  44  53 W17G25    29.96R
BURLINGTON     SUNNY     58  44  59 W14G21    29.96S
KENOSHA        SUNNY     61  46  57 W18G24    29.96R
FOND DU LAC    SUNNY     59  44  57 W16G26    29.87F
SHEBOYGAN      SUNNY     59  44  57 W20G33    29.86S
WEST BEND      SUNNY     57  45  62 W17G26    29.90S
JUNEAU         SUNNY     56  44  63 W17G24    29.93S
$$

LSZ147-162-261600-
LAKE SUPERIOR

STATION/POSITION TIME  TEMP    WIND        PRES    WAVE
                       AIR SEA DIR/SP/G            HT/PER
                 (UTC) (F)     (DEG/KT/KT) (MB)    (FT/S)
W MID LAKE BUOY  1350   54 57  250/ 27/ 33  999.2S   7/ 7
DEVILS ISLAND    1400   54     260/ 29/ 35 1002.7R
SAXON HARBOR     1400   51     220/  7/ 16 1005.1R
$$

LMZ867-665-643>646-261600-
LAKE MICHIGAN

STATION/POSITION TIME  TEMP    WIND        PRES    WAVE
                       AIR SEA DIR/SP/G            HT/PER
                 (UTC) (F)     (DEG/KT/KT) (MB)    (FT/S)
CHAMBERS ISLAND  1400   56     210/  9/ 23 1006.4F
N MID LAKE BUOY  1350   57 67  240/ 25/ 29 1005.6F   6/ 6
NORTHPORT PIER   1400   57     260/ 10/ 18 1006.8F
KEWAUNEE LAKESHO 1400   57     250/ 17/ 24 1008.5F
SHEBOYGAN LAKESH 1400   57     270/ 18/ 22 1010.8F
PORT WASHINGTON  1400   60     270/ 13/ 21 1012.9
ATWATER BUOY     1400   58 54  250/ 16/ 19 1012.9F
MILWAUKEE LAKESH 1410   59     280/ 11/ 16   N/A
S MID LAKE BUOY  1350   62 71  260/ 21/ 25 1013.0R   5/ 5
KENOSHA   LAKESH 1400   58     260/ 14/ 19 1014.2F
$$

TC  - TEMPERATURE IN CELSIUS
VSB - VISIBILITY IN STATUTE MILES
WCI - WIND CHILL INDEX
HX  - HEAT INDEX





USA.gov is the U.S. government's official web portal to all federal, state and local government web resources and services.